When you browse on this site, cookies collect data to enhance your experience and personalize the content and advertising you see.
Visit our Privacy Policy to learn more. By continuing to use the site, you agree to this use of cookies and data.
  • In Latvia
  • List of Countries
  • For 7 days
  • Water Temperature
  • Satellite Maps
  • Weather Map
  • Weather Widgets
  • user-avatar
    Login

    Hourly Weather Dobele

    Today, 21 July, Sunday

    Time Temperature Precipitation Wind Pressure Humidity
    00:00 +14°C° 0 mm 1 mps 758 mmHg 75%
    01:00 +14°C° 0 mm 1 mps 758 mmHg 75%
    02:00 +13°C° 0 mm 1 mps 759 mmHg 76%
    03:00 +13°C° 0 mm 1 mps 759 mmHg 78%
    04:00 +13°C° 0 mm 1 mps 758 mmHg 80%
    05:00 +13°C° 0 mm 1 mps 758 mmHg 82%
    06:00 +15°C° 0 mm 2 mps 758 mmHg 79%
    07:00 +17°C° 0 mm 2 mps 758 mmHg 75%
    08:00 +19°C° 0 mm 2 mps 758 mmHg 72%
    09:00 +21°C° 0 mm 3 mps 758 mmHg 68%
    10:00 +22°C° 0 mm 3 mps 758 mmHg 64%
    11:00 +25°C° 0 mm 3 mps 758 mmHg 60%
    12:00 +25°C° 0 mm 3 mps 758 mmHg 59%
    13:00 +26°C° 0 mm 3 mps 757 mmHg 58%
    14:00 +27°C° 0 mm 3 mps 757 mmHg 56%
    15:00 +26°C° 0.5 mm 3 mps 757 mmHg 62%
    16:00 +26°C° 0.5 mm 3 mps 757 mmHg 69%
    17:00 +25°C° 0.5 mm 3 mps 757 mmHg 75%
    18:00 +24°C° 0.5 mm 2 mps 757 mmHg 79%
    19:00 +21°C° 0.5 mm 2 mps 756 mmHg 83%
    20:00 +21°C° 0.5 mm 1 mps 756 mmHg 87%
    21:00 +20°C° 0.4 mm 1 mps 756 mmHg 90%
    22:00 +18°C° 0.4 mm 2 mps 757 mmHg 93%
    23:00 +17°C° 0.4 mm 2 mps 757 mmHg 96%

    Tomorrow, 22 July, Monday

    Time Temperature Precipitation Wind Pressure Humidity
    00:00 +17°C° 0.4 mm 2 mps 757 mmHg 96%
    01:00 +16°C° 0.4 mm 2 mps 756 mmHg 97%
    02:00 +16°C° 0.4 mm 2 mps 756 mmHg 98%
    03:00 +16°C° 0 mm 2 mps 756 mmHg 98%
    04:00 +16°C° 0 mm 2 mps 756 mmHg 98%
    05:00 +16°C° 0 mm 2 mps 757 mmHg 98%
    06:00 +18°C° 0 mm 1 mps 756 mmHg 96%
    07:00 +19°C° 0 mm 1 mps 756 mmHg 93%
    08:00 +20°C° 0 mm 1 mps 756 mmHg 91%
    09:00 +21°C° 0.1 mm 1 mps 757 mmHg 84%
    10:00 +22°C° 0.1 mm 1 mps 757 mmHg 78%
    11:00 +23°C° 0.1 mm 2 mps 757 mmHg 71%
    12:00 +24°C° 1 mm 2 mps 757 mmHg 74%
    13:00 +24°C° 1 mm 2 mps 757 mmHg 77%
    14:00 +24°C° 1 mm 2 mps 757 mmHg 80%
    15:00 +22°C° 1.7 mm 3 mps 757 mmHg 82%
    16:00 +22°C° 1.7 mm 3 mps 757 mmHg 85%
    17:00 +21°C° 1.7 mm 3 mps 757 mmHg 88%
    18:00 +20°C° 1.5 mm 3 mps 757 mmHg 90%
    19:00 +19°C° 1.5 mm 3 mps 757 mmHg 92%
    20:00 +18°C° 1.5 mm 3 mps 757 mmHg 94%
    21:00 +17°C° 0.2 mm 3 mps 757 mmHg 95%
    22:00 +16°C° 0.2 mm 3 mps 757 mmHg 96%
    23:00 +16°C° 0.2 mm 3 mps 758 mmHg 97%

    Day after tomorrow, 23 July, Tuesday

    Time Temperature Precipitation Wind Pressure Humidity
    00:00 +14°C° 0 mm 3 mps 758 mmHg 97%
    01:00 +15°C° 0 mm 2 mps 757 mmHg 97%
    02:00 +14°C° 0 mm 2 mps 757 mmHg 97%
    03:00 +14°C° 0 mm 2 mps 758 mmHg 97%
    04:00 +14°C° 0 mm 2 mps 758 mmHg 96%
    05:00 +14°C° 0 mm 1 mps 758 mmHg 96%
    06:00 +15°C° 0 mm 1 mps 758 mmHg 94%
    07:00 +18°C° 0 mm 1 mps 758 mmHg 91%
    08:00 +19°C° 0 mm 1 mps 758 mmHg 88%
    09:00 +21°C° 0 mm 1 mps 758 mmHg 80%
    10:00 +22°C° 0 mm 1 mps 758 mmHg 72%
    11:00 +24°C° 0 mm 2 mps 758 mmHg 63%
    12:00 +24°C° 0.2 mm 2 mps 758 mmHg 64%
    13:00 +25°C° 0.2 mm 2 mps 758 mmHg 66%
    14:00 +25°C° 0.2 mm 2 mps 758 mmHg 67%
    15:00 +24°C° 0.6 mm 2 mps 758 mmHg 72%
    16:00 +23°C° 0.6 mm 2 mps 758 mmHg 77%
    17:00 +22°C° 0.6 mm 3 mps 758 mmHg 83%
    18:00 +21°C° 0.1 mm 2 mps 758 mmHg 85%
    19:00 +20°C° 0.1 mm 2 mps 758 mmHg 87%
    20:00 +20°C° 0.1 mm 1 mps 758 mmHg 89%
    21:00 +19°C° 0 mm 1 mps 758 mmHg 90%
    22:00 +18°C° 0 mm 1 mps 758 mmHg 91%
    23:00 +16°C° 0 mm 1 mps 759 mmHg 93%

    24 July, Wednesday

    Time Temperature Precipitation Wind Pressure Humidity
    00:00 +16°C° 0 mm 1 mps 759 mmHg 93%
    01:00 +15°C° 0 mm 1 mps 759 mmHg 93%
    02:00 +15°C° 0 mm 1 mps 759 mmHg 93%
    03:00 +15°C° 0 mm 1 mps 759 mmHg 93%
    04:00 +15°C° 0 mm 1 mps 759 mmHg 93%
    05:00 +15°C° 0 mm 1 mps 759 mmHg 93%
    06:00 +16°C° 0 mm 1 mps 759 mmHg 89%
    07:00 +19°C° 0 mm 1 mps 759 mmHg 84%
    08:00 +21°C° 0 mm 1 mps 759 mmHg 79%
    09:00 +22°C° 0 mm 1 mps 759 mmHg 73%
    10:00 +24°C° 0 mm 1 mps 760 mmHg 67%
    11:00 +25°C° 0 mm 1 mps 760 mmHg 61%
    12:00 +25°C° 0 mm 1 mps 760 mmHg 60%
    13:00 +25°C° 0 mm 1 mps 760 mmHg 59%
    14:00 +26°C° 0 mm 1 mps 760 mmHg 58%
    15:00 +25°C° 0 mm 1 mps 760 mmHg 60%
    16:00 +25°C° 0 mm 2 mps 760 mmHg 62%
    17:00 +25°C° 0 mm 2 mps 760 mmHg 64%
    18:00 +24°C° 0 mm 2 mps 760 mmHg 70%
    19:00 +21°C° 0 mm 2 mps 760 mmHg 76%
    20:00 +20°C° 0 mm 2 mps 760 mmHg 82%
    21:00 +19°C° 0 mm 1 mps 760 mmHg 83%
    22:00 +18°C° 0 mm 1 mps 761 mmHg 85%
    23:00 +16°C° 0 mm 1 mps 761 mmHg 86%

    25 July, Thursday

    Time Temperature Precipitation Wind Pressure Humidity
    00:00 +16°C° 0 mm 1 mps 761 mmHg 87%
    01:00 +15°C° 0 mm 1 mps 761 mmHg 89%
    02:00 +15°C° 0 mm 1 mps 762 mmHg 90%
    03:00 +15°C° 0 mm 1 mps 762 mmHg 91%
    04:00 +15°C° 0 mm 1 mps 762 mmHg 91%
    05:00 +15°C° 0 mm 1 mps 762 mmHg 92%
    06:00 +18°C° 0 mm 1 mps 762 mmHg 87%
    07:00 +20°C° 0 mm 1 mps 762 mmHg 81%
    08:00 +22°C° 0 mm 1 mps 763 mmHg 75%
    09:00 +23°C° 0 mm 1 mps 763 mmHg 69%
    10:00 +24°C° 0 mm 1 mps 763 mmHg 63%
    11:00 +26°C° 0 mm 1 mps 763 mmHg 57%
    12:00 +26°C° 0 mm 1 mps 763 mmHg 55%
    13:00 +27°C° 0 mm 1 mps 763 mmHg 52%
    14:00 +28°C° 0 mm 1 mps 763 mmHg 50%
    15:00 +27°C° 0 mm 1 mps 763 mmHg 52%
    16:00 +27°C° 0 mm 2 mps 763 mmHg 54%
    17:00 +27°C° 0 mm 2 mps 763 mmHg 56%
    18:00 +25°C° 0 mm 2 mps 763 mmHg 63%
    19:00 +23°C° 0 mm 2 mps 763 mmHg 70%
    20:00 +20°C° 0 mm 2 mps 762 mmHg 77%
    21:00 +20°C° 0 mm 1 mps 763 mmHg 77%
    22:00 +19°C° 0 mm 1 mps 763 mmHg 78%
    23:00 +18°C° 0 mm 1 mps 763 mmHg 78%

    26 July, Friday

    Time Temperature Precipitation Wind Pressure Humidity
    00:00 +18°C° 0 mm 1 mps 763 mmHg 79%
    01:00 +18°C° 0 mm 1 mps 763 mmHg 79%
    02:00 +16°C° 0 mm 1 mps 763 mmHg 79%
    03:00 +18°C° 0 mm 1 mps 763 mmHg 79%
    04:00 +18°C° 0 mm 1 mps 763 mmHg 80%
    05:00 +18°C° 0 mm 1 mps 763 mmHg 80%
    06:00 +20°C° 0 mm 1 mps 763 mmHg 77%
    07:00 +21°C° 0 mm 1 mps 763 mmHg 73%
    08:00 +23°C° 0 mm 1 mps 763 mmHg 70%
    09:00 +25°C° 0 mm 1 mps 763 mmHg 66%
    10:00 +27°C° 0 mm 1 mps 763 mmHg 63%
    11:00 +28°C° 0 mm 1 mps 763 mmHg 59%
    12:00 +29°C° 0 mm 1 mps 763 mmHg 57%
    13:00 +29°C° 0 mm 1 mps 763 mmHg 54%
    14:00 +30°C° 0 mm 1 mps 762 mmHg 52%
    15:00 +30°C° 0 mm 1 mps 762 mmHg 53%
    16:00 +29°C° 0 mm 1 mps 762 mmHg 55%
    17:00 +29°C° 0 mm 1 mps 761 mmHg 57%
    18:00 +27°C° 0 mm 1 mps 761 mmHg 64%
    19:00 +25°C° 0 mm 1 mps 761 mmHg 70%
    20:00 +24°C° 0 mm 1 mps 761 mmHg 77%
    21:00 +23°C° 0 mm 1 mps 761 mmHg 78%
    22:00 +21°C° 0 mm 1 mps 761 mmHg 78%
    23:00 +20°C° 0 mm 1 mps 761 mmHg 79%
    Show more